Weather History for Georgetown, DE

Change the Weather History Date:

Thursday, January 23, 2014

  Actual Average Record
Temperature  
Mean Temperature 14 °F 35 °F  
Max Temperature 25 °F 43 °F 70 °F (1967)
Min Temperature 2 °F 26 °F -1 °F (1970)
Degree Days  
Heating Degree Days 51 30  
Month to date heating degree days 707 687  
Since 1 July heating degree days 2203 2269  
Cooling Degree Days 0 0  
Month to date cooling degree days 0 0  
Year to date cooling degree days 0 0  
Moisture  
Dew Point 3 °F    
Average Humidity 65    
Maximum Humidity 87    
Minimum Humidity 42    
Precipitation  
Precipitation 0.00 in 0.09 in 1.22 in (2006)
Month to date precipitation 2.84 2.17  
Year to date precipitation 2.84 2.17  
Sea Level Pressure  
Sea Level Pressure 30.25 in    
Wind  
Wind Speed 4 mph (West)    
Max Wind Speed 13 mph    
Max Gust Speed 16 mph    
Visibility 10 miles    
Events      
T = Trace of Precipitation, MM = Missing Value Source: NWS Daily Summary

Daily Weather History Graph

Daily Weather History Graph

Search for Another Location

Airport:

Trip Planner

Search our weather history database for the weather conditions in past years. The results will help you decide how hot, cold, wet, or windy it might be!

Date:

Astronomy

Jan. 23, 2014 Rise Set
Actual Time 7:14 AM EST 5:12 PM EST
Civil Twilight 6:45 AM EST 5:41 PM EST
Nautical Twilight 6:13 AM EST 6:13 PM EST
Astronomical Twilight 5:41 AM EST 6:45 PM EST
Moon No Moon Rise 10:52 AM EST (1/23)
Length of Visible Light 10h 56m
Length of Day
9h 58m
Waning Gibbous, 55% of the Moon is Illuminated
Jan 23
Waning Gibbous
Jan 24
Last Quarter
Jan 30
New
Feb 6
First Quarter
Feb 14
Full

Hourly Weather History & Observations

Time (EST) Temp. Windchill Dew Point Humidity Pressure Visibility Wind Dir Wind Speed Gust Speed Precip Events Conditions
12:54 AM 12.0 °F - 1.0 °F 61% 30.11 in 10.0 mi Calm Calm - N/A   Overcast
1:54 AM 12.0 °F - 1.9 °F 64% 30.11 in 10.0 mi Calm Calm - N/A   Overcast
2:54 AM 10.9 °F - 1.9 °F 67% 30.13 in 10.0 mi Calm Calm - N/A   Partly Cloudy
3:54 AM 8.1 °F - 1.0 °F 73% 30.14 in 10.0 mi Calm Calm - N/A   Clear
4:54 AM 8.1 °F - -0.0 °F 70% 30.16 in 10.0 mi Calm Calm - N/A   Clear
5:54 AM 5.0 °F - -0.9 °F 76% 30.19 in 10.0 mi Calm Calm - N/A   Clear
6:54 AM 1.9 °F - -2.0 °F 83% 30.20 in 10.0 mi Calm Calm - N/A   Clear
7:54 AM 3.9 °F - -0.0 °F 84% 30.22 in 8.0 mi Calm Calm - N/A   Clear
8:54 AM 9.0 °F 0.6 °F 1.9 °F 73% 30.23 in 10.0 mi SSW 4.6 mph - N/A   Clear
9:54 AM 14.0 °F - 1.9 °F 59% 30.25 in 10.0 mi Calm Calm - N/A   Clear
10:54 AM 17.1 °F 8.7 °F 1.9 °F 52% 30.26 in 10.0 mi SSW 5.8 mph - N/A   Clear
11:54 AM 19.0 °F 11.1 °F 3.9 °F 52% 30.25 in 10.0 mi SSW 5.8 mph - N/A   Clear
12:54 PM 21.0 °F 11.4 °F 3.9 °F 48% 30.22 in 10.0 mi SW 8.1 mph - N/A   Clear
1:54 PM 23.0 °F 17.0 °F 6.1 °F 48% 30.21 in 10.0 mi Variable 4.6 mph - N/A   Unknown
2:54 PM 24.1 °F 14.4 °F 5.0 °F 44% 30.22 in 10.0 mi West 9.2 mph - N/A   Clear
3:54 PM 25.0 °F 18.1 °F 6.1 °F 45% 30.23 in 10.0 mi WNW 5.8 mph - N/A   Clear
4:54 PM 24.1 °F 18.2 °F 8.1 °F 51% 30.27 in 10.0 mi Variable 4.6 mph - N/A   Clear
5:54 PM 21.9 °F 17.2 °F 10.9 °F 63% 30.30 in 10.0 mi NW 3.5 mph - N/A   Overcast
6:54 PM 21.9 °F 15.7 °F 9.0 °F 58% 30.32 in 10.0 mi Variable 4.6 mph - N/A   Partly Cloudy
7:54 PM 19.9 °F 10.1 °F 6.1 °F 55% 30.35 in 10.0 mi NW 8.1 mph - N/A   Clear
8:54 PM 19.0 °F 11.1 °F 5.0 °F 54% 30.37 in 10.0 mi NW 5.8 mph - N/A   Clear
9:54 PM 18.0 °F 11.1 °F 3.9 °F 54% 30.39 in 10.0 mi WNW 4.6 mph - N/A   Clear
10:54 PM 17.1 °F 6.6 °F 1.9 °F 52% 30.40 in 10.0 mi NW 8.1 mph - N/A   Clear
11:54 PM 16.0 °F 6.3 °F -0.9 °F 47% 30.40 in 10.0 mi NW 6.9 mph - N/A   Clear